Year,Month,Day,Hour,Minute,Value (Times are PST for temperature in C)
2019,04,19,10,00,12.30
2019,04,19,10,01,12.30
2019,04,19,10,02,12.30
2019,04,19,10,03,12.20
2019,04,19,10,04,12.30
2019,04,19,10,05,12.30
2019,04,19,10,06,12.30
2019,04,19,10,07,12.30
2019,04,19,10,08,12.20
2019,04,19,10,09,12.20
2019,04,19,10,10,12.20
2019,04,19,10,11,12.20
2019,04,19,10,12,12.20
2019,04,19,10,13,12.20
2019,04,19,10,14,12.20
2019,04,19,10,15,12.20
2019,04,19,10,16,12.20
2019,04,19,10,17,12.20
2019,04,19,10,18,12.20
2019,04,19,10,19,12.20
2019,04,19,10,20,12.20
2019,04,19,10,21,12.20
2019,04,19,10,22,12.20
2019,04,19,10,23,12.20
2019,04,19,10,24,12.20
2019,04,19,10,25,12.20
2019,04,19,10,26,12.20
2019,04,19,10,27,12.20
2019,04,19,10,28,12.20
2019,04,19,10,29,12.30
2019,04,19,10,30,12.30
2019,04,19,10,31,12.30
2019,04,19,10,32,12.30
2019,04,19,10,33,12.30
2019,04,19,10,34,12.40
2019,04,19,10,35,12.40
2019,04,19,10,36,12.40
2019,04,19,10,37,12.50
2019,04,19,10,38,12.50
2019,04,19,10,39,12.50
2019,04,19,10,40,12.40
2019,04,19,10,41,12.40
2019,04,19,10,42,12.50
2019,04,19,10,43,12.50
2019,04,19,10,44,12.50
2019,04,19,10,45,12.50
2019,04,19,10,46,12.50
2019,04,19,10,47,12.50
2019,04,19,10,48,12.50
2019,04,19,10,49,12.60
2019,04,19,10,50,12.60
2019,04,19,10,51,12.60
2019,04,19,10,52,12.60
2019,04,19,10,53,12.60
2019,04,19,10,54,12.50
2019,04,19,10,55,12.50
2019,04,19,10,56,12.40
2019,04,19,10,57,12.40
2019,04,19,10,58,12.40
2019,04,19,10,59,12.40
2019,04,19,11,00,12.40
2019,04,19,11,01,12.40
2019,04,19,11,02,12.40
2019,04,19,11,03,12.40
2019,04,19,11,04,12.30
2019,04,19,11,05,12.30
2019,04,19,11,06,12.20
2019,04,19,11,07,12.20
2019,04,19,11,08,12.20
2019,04,19,11,09,12.20
2019,04,19,11,10,12.30
2019,04,19,11,11,12.30
2019,04,19,11,12,12.40
2019,04,19,11,13,12.40
2019,04,19,11,14,12.30
2019,04,19,11,15,12.30
2019,04,19,11,16,12.30
2019,04,19,11,17,12.20
2019,04,19,11,18,12.30
2019,04,19,11,19,12.30
2019,04,19,11,20,12.30
2019,04,19,11,21,12.40
2019,04,19,11,22,12.50
2019,04,19,11,23,12.50
2019,04,19,11,24,12.60
2019,04,19,11,25,12.60
2019,04,19,11,26,12.60
2019,04,19,11,27,12.60
2019,04,19,11,28,12.60
2019,04,19,11,29,12.70
2019,04,19,11,30,12.70
2019,04,19,11,31,12.80
2019,04,19,11,32,12.80
2019,04,19,11,33,12.80
2019,04,19,11,34,12.90
2019,04,19,11,35,12.90
2019,04,19,11,36,13.00
2019,04,19,11,37,12.90
2019,04,19,11,38,13.00
2019,04,19,11,39,13.10
2019,04,19,11,40,13.10
2019,04,19,11,41,13.20
2019,04,19,11,42,13.20
2019,04,19,11,43,13.20
2019,04,19,11,44,13.20
2019,04,19,11,45,13.30
2019,04,19,11,46,13.30
2019,04,19,11,47,13.30
2019,04,19,11,48,13.30
2019,04,19,11,49,13.30
2019,04,19,11,50,13.30
2019,04,19,11,51,13.20
2019,04,19,11,52,13.20
2019,04,19,11,53,13.10
2019,04,19,11,54,13.10
2019,04,19,11,55,13.10
2019,04,19,11,56,13.10
2019,04,19,11,57,13.20
2019,04,19,11,58,13.20
2019,04,19,11,59,13.20
2019,04,19,12,00,13.20
2019,04,19,12,01,13.20
2019,04,19,12,02,13.30
2019,04,19,12,03,13.30
2019,04,19,12,04,13.40
2019,04,19,12,05,13.50
2019,04,19,12,06,13.50
2019,04,19,12,07,13.60
2019,04,19,12,08,13.60
2019,04,19,12,09,13.70
2019,04,19,12,10,13.70
2019,04,19,12,11,13.80
2019,04,19,12,12,13.80
2019,04,19,12,13,13.80
2019,04,19,12,14,13.90
2019,04,19,12,15,13.90
2019,04,19,12,16,13.90
2019,04,19,12,17,13.90
2019,04,19,12,18,13.90
2019,04,19,12,19,13.80
2019,04,19,12,20,13.70
2019,04,19,12,21,13.60
2019,04,19,12,22,13.60
2019,04,19,12,23,13.50
2019,04,19,12,24,13.50
2019,04,19,12,25,13.50
2019,04,19,12,26,13.50
2019,04,19,12,27,13.50
2019,04,19,12,28,13.60
2019,04,19,12,29,13.60
2019,04,19,12,30,13.60
2019,04,19,12,31,13.60
2019,04,19,12,32,13.60
2019,04,19,12,33,13.70
2019,04,19,12,34,13.80
2019,04,19,12,35,13.80
2019,04,19,12,36,13.80
2019,04,19,12,37,13.80
2019,04,19,12,38,13.80
2019,04,19,12,39,13.80
2019,04,19,12,40,13.70
2019,04,19,12,41,13.70
2019,04,19,12,42,13.70
2019,04,19,12,43,13.70
2019,04,19,12,44,13.80
2019,04,19,12,45,13.80
2019,04,19,12,46,13.80
2019,04,19,12,47,13.80
2019,04,19,12,48,13.90
2019,04,19,12,49,14.00
2019,04,19,12,50,14.00
2019,04,19,12,51,13.90
2019,04,19,12,52,13.80
2019,04,19,12,53,13.70
2019,04,19,12,54,13.70
2019,04,19,12,55,13.70
2019,04,19,12,56,13.70
2019,04,19,12,57,13.70
2019,04,19,12,58,13.70
2019,04,19,12,59,13.80
2019,04,19,13,00,13.80
2019,04,19,13,01,14.00
2019,04,19,13,02,14.00
2019,04,19,13,03,14.00
2019,04,19,13,04,14.10
2019,04,19,13,05,14.10
2019,04,19,13,06,14.20
2019,04,19,13,07,14.10
2019,04,19,13,08,14.00
2019,04,19,13,09,14.00
2019,04,19,13,10,13.80
2019,04,19,13,11,13.80
2019,04,19,13,12,13.80
2019,04,19,13,13,13.70
2019,04,19,13,14,13.70
2019,04,19,13,15,13.80
2019,04,19,13,16,13.80
2019,04,19,13,17,13.70
2019,04,19,13,18,13.70
2019,04,19,13,19,13.70
2019,04,19,13,20,13.70
2019,04,19,13,21,13.60
2019,04,19,13,22,13.60
2019,04,19,13,23,13.60
2019,04,19,13,24,13.60
2019,04,19,13,25,13.50
2019,04,19,13,26,13.50
2019,04,19,13,27,13.50
2019,04,19,13,28,13.40
2019,04,19,13,29,13.40
2019,04,19,13,30,13.30
2019,04,19,13,31,13.30
2019,04,19,13,32,13.30
2019,04,19,13,33,13.30
2019,04,19,13,34,13.30
2019,04,19,13,35,13.20
2019,04,19,13,36,13.20
2019,04,19,13,37,13.20
2019,04,19,13,38,13.20
2019,04,19,13,39,13.20
2019,04,19,13,40,13.20
2019,04,19,13,41,13.20
2019,04,19,13,42,13.20
2019,04,19,13,43,13.20
2019,04,19,13,44,13.10
2019,04,19,13,45,12.90
2019,04,19,13,46,12.80
2019,04,19,13,47,12.80
2019,04,19,13,48,12.80
2019,04,19,13,49,12.80
2019,04,19,13,50,12.80
2019,04,19,13,51,12.80
2019,04,19,13,52,12.80
2019,04,19,13,53,12.80
2019,04,19,13,54,12.80
2019,04,19,13,55,12.80
2019,04,19,13,56,12.80
2019,04,19,13,57,12.80
2019,04,19,13,58,12.70
2019,04,19,13,59,12.70
2019,04,19,14,00,12.70
2019,04,19,14,01,12.60
2019,04,19,14,02,12.60
2019,04,19,14,03,12.50
2019,04,19,14,04,12.40
2019,04,19,14,05,12.40
2019,04,19,14,06,12.30
2019,04,19,14,07,12.30
2019,04,19,14,08,12.30
2019,04,19,14,09,12.30
2019,04,19,14,10,12.30
2019,04,19,14,11,12.30
2019,04,19,14,12,12.30
2019,04,19,14,13,12.30
2019,04,19,14,14,12.30
2019,04,19,14,15,12.30
2019,04,19,14,16,12.30
2019,04,19,14,17,12.30
2019,04,19,14,18,12.30
2019,04,19,14,19,12.30
2019,04,19,14,20,12.30
2019,04,19,14,21,12.30
2019,04,19,14,22,12.30
2019,04,19,14,23,12.30
2019,04,19,14,24,12.30
2019,04,19,14,25,12.30
2019,04,19,14,26,12.30
2019,04,19,14,27,12.30
2019,04,19,14,28,12.30
2019,04,19,14,29,12.30
2019,04,19,14,30,12.20
2019,04,19,14,31,12.10
2019,04,19,14,32,12.10
2019,04,19,14,33,12.10
2019,04,19,14,34,12.10
2019,04,19,14,35,12.10
2019,04,19,14,36,12.10
2019,04,19,14,37,12.10
2019,04,19,14,38,12.10
2019,04,19,14,39,12.10
2019,04,19,14,40,12.10
2019,04,19,14,41,12.10
2019,04,19,14,42,12.10
2019,04,19,14,43,12.20
2019,04,19,14,44,12.20
2019,04,19,14,45,12.20
2019,04,19,14,46,12.20
2019,04,19,14,47,12.30
2019,04,19,14,48,12.30
2019,04,19,14,49,12.20
2019,04,19,14,50,12.30
2019,04,19,14,51,12.30
2019,04,19,14,52,12.30
2019,04,19,14,53,12.30
2019,04,19,14,54,12.40
2019,04,19,14,55,12.40
2019,04,19,14,56,12.50
2019,04,19,14,57,12.50
2019,04,19,14,58,12.60
2019,04,19,14,59,12.60
2019,04,19,15,00,12.70
2019,04,19,15,01,12.70
2019,04,19,15,02,12.70
2019,04,19,15,03,12.70
2019,04,19,15,04,12.70
2019,04,19,15,05,12.70
2019,04,19,15,06,12.70
2019,04,19,15,07,12.80
2019,04,19,15,08,12.80
2019,04,19,15,09,12.80
2019,04,19,15,10,12.80
2019,04,19,15,11,12.80
2019,04,19,15,12,12.80
2019,04,19,15,13,12.80
2019,04,19,15,14,12.80
2019,04,19,15,15,12.80
2019,04,19,15,16,12.80
2019,04,19,15,17,12.80
2019,04,19,15,18,12.80
2019,04,19,15,19,12.80
2019,04,19,15,20,12.80
2019,04,19,15,21,12.80
2019,04,19,15,22,12.80
2019,04,19,15,23,12.80
2019,04,19,15,24,12.80
2019,04,19,15,25,12.90
2019,04,19,15,26,12.90
2019,04,19,15,27,12.90
2019,04,19,15,28,12.80
2019,04,19,15,29,12.80
2019,04,19,15,30,12.90
2019,04,19,15,31,12.80
2019,04,19,15,32,12.80
2019,04,19,15,33,12.80
2019,04,19,15,34,12.80
2019,04,19,15,35,12.80
2019,04,19,15,36,12.80
2019,04,19,15,37,12.80
2019,04,19,15,38,12.90
2019,04,19,15,39,12.90
2019,04,19,15,40,13.00
2019,04,19,15,41,13.10
2019,04,19,15,42,13.20
2019,04,19,15,43,13.20
2019,04,19,15,44,13.20
2019,04,19,15,45,13.30
2019,04,19,15,46,13.30
2019,04,19,15,47,13.30
2019,04,19,15,48,13.30
2019,04,19,15,49,13.40
2019,04,19,15,50,13.40
2019,04,19,15,51,13.40
2019,04,19,15,52,13.40
2019,04,19,15,53,13.40
2019,04,19,15,54,13.50
2019,04,19,15,55,13.40
2019,04,19,15,56,13.40
2019,04,19,15,57,13.40
2019,04,19,15,58,13.40
2019,04,19,15,59,13.40
2019,04,19,16,00,13.50
2019,04,19,16,01,13.50
2019,04,19,16,02,13.60
2019,04,19,16,03,13.60
2019,04,19,16,04,13.50
2019,04,19,16,05,13.50
2019,04,19,16,06,13.50
2019,04,19,16,07,13.40
2019,04,19,16,08,13.40
2019,04,19,16,09,13.30
2019,04,19,16,10,13.30
2019,04,19,16,11,13.30
2019,04,19,16,12,13.20
2019,04,19,16,13,13.10
2019,04,19,16,14,13.00
2019,04,19,16,15,13.00
2019,04,19,16,16,12.90
2019,04,19,16,17,12.90
2019,04,19,16,18,12.90
2019,04,19,16,19,12.90
2019,04,19,16,20,12.90
2019,04,19,16,21,12.80
2019,04,19,16,22,12.80
2019,04,19,16,23,12.80
2019,04,19,16,24,12.80
2019,04,19,16,25,12.80
2019,04,19,16,26,12.80
2019,04,19,16,27,12.80
2019,04,19,16,28,12.80
2019,04,19,16,29,12.80
2019,04,19,16,30,12.80
2019,04,19,16,31,12.80
2019,04,19,16,32,12.80
2019,04,19,16,33,12.80
2019,04,19,16,34,12.80
2019,04,19,16,35,12.80
2019,04,19,16,36,12.80
2019,04,19,16,37,12.70
2019,04,19,16,38,12.80
2019,04,19,16,39,12.80
2019,04,19,16,40,12.80
2019,04,19,16,41,12.80
2019,04,19,16,42,12.80
2019,04,19,16,43,12.80
2019,04,19,16,44,12.80
2019,04,19,16,45,12.80
2019,04,19,16,46,12.80
2019,04,19,16,47,12.80
2019,04,19,16,48,12.90
2019,04,19,16,49,12.90
2019,04,19,16,50,13.00
2019,04,19,16,51,13.10
2019,04,19,16,52,13.10
2019,04,19,16,53,13.10
2019,04,19,16,54,13.10
2019,04,19,16,55,13.10
2019,04,19,16,56,13.10
2019,04,19,16,57,13.10
2019,04,19,16,58,13.10
2019,04,19,16,59,13.00
2019,04,19,17,00,13.10
2019,04,19,17,01,13.10
2019,04,19,17,02,13.10
2019,04,19,17,03,13.00
2019,04,19,17,04,13.00
2019,04,19,17,05,13.00
2019,04,19,17,06,13.00
2019,04,19,17,07,13.00
2019,04,19,17,08,13.00
2019,04,19,17,09,13.00
2019,04,19,17,10,13.00
2019,04,19,17,11,13.00
2019,04,19,17,12,13.00
2019,04,19,17,13,12.90
2019,04,19,17,14,12.90
2019,04,19,17,15,12.90
2019,04,19,17,16,12.80
2019,04,19,17,17,12.70
2019,04,19,17,18,12.70
2019,04,19,17,19,12.60
2019,04,19,17,20,12.60
2019,04,19,17,21,12.60
2019,04,19,17,22,12.50
2019,04,19,17,23,12.50
2019,04,19,17,24,12.60
2019,04,19,17,25,12.60
2019,04,19,17,26,12.60
2019,04,19,17,27,12.60
2019,04,19,17,28,12.70
2019,04,19,17,29,12.70
2019,04,19,17,30,12.70
2019,04,19,17,31,12.80
2019,04,19,17,32,12.80
2019,04,19,17,33,12.80
2019,04,19,17,34,12.80
2019,04,19,17,35,12.90
2019,04,19,17,36,12.90
2019,04,19,17,37,12.90
2019,04,19,17,38,12.90
2019,04,19,17,39,12.90
2019,04,19,17,40,13.00
2019,04,19,17,41,13.00
2019,04,19,17,42,13.10
2019,04,19,17,43,13.10
2019,04,19,17,44,13.10
2019,04,19,17,45,13.10
2019,04,19,17,46,13.10
2019,04,19,17,47,13.10
2019,04,19,17,48,13.00
2019,04,19,17,49,13.00
2019,04,19,17,50,13.00
2019,04,19,17,51,13.00
2019,04,19,17,52,13.00
2019,04,19,17,53,13.00
2019,04,19,17,54,13.00
2019,04,19,17,55,13.00
2019,04,19,17,56,13.00
2019,04,19,17,57,13.00
2019,04,19,17,58,13.00
2019,04,19,17,59,12.90
2019,04,19,18,00,12.90
2019,04,19,18,01,12.90
2019,04,19,18,02,12.80
2019,04,19,18,03,12.80
2019,04,19,18,04,12.80
2019,04,19,18,05,12.80
2019,04,19,18,06,12.80
2019,04,19,18,07,12.80
2019,04,19,18,08,12.80
2019,04,19,18,09,12.70
2019,04,19,18,10,12.70
2019,04,19,18,11,12.70
2019,04,19,18,12,12.70
2019,04,19,18,13,12.70
2019,04,19,18,14,12.70
2019,04,19,18,15,12.70
2019,04,19,18,16,12.70
2019,04,19,18,17,12.60
2019,04,19,18,18,12.60
2019,04,19,18,19,12.70
2019,04,19,18,20,12.70
2019,04,19,18,21,12.70
2019,04,19,18,22,12.70
2019,04,19,18,23,12.70
2019,04,19,18,24,12.70
2019,04,19,18,25,12.60
2019,04,19,18,26,12.60
2019,04,19,18,27,12.60
2019,04,19,18,28,12.60
2019,04,19,18,29,12.60
2019,04,19,18,30,12.60
2019,04,19,18,31,12.60
2019,04,19,18,32,12.60
2019,04,19,18,33,12.70
2019,04,19,18,34,12.70
2019,04,19,18,35,12.70
2019,04,19,18,36,12.70
2019,04,19,18,37,12.70
2019,04,19,18,38,12.70
2019,04,19,18,39,12.70
2019,04,19,18,40,12.70
2019,04,19,18,41,12.70
2019,04,19,18,42,12.70
2019,04,19,18,43,12.60
2019,04,19,18,44,12.60
2019,04,19,18,45,12.70
2019,04,19,18,46,12.70
2019,04,19,18,47,12.70
2019,04,19,18,48,12.70
2019,04,19,18,49,12.70
2019,04,19,18,50,12.70
2019,04,19,18,51,12.70
2019,04,19,18,52,12.70
2019,04,19,18,53,12.70
2019,04,19,18,54,12.70
2019,04,19,18,55,12.70
2019,04,19,18,56,12.70
2019,04,19,18,57,12.70
2019,04,19,18,58,12.70
2019,04,19,18,59,12.70
2019,04,19,19,00,12.70
2019,04,19,19,01,12.70
2019,04,19,19,02,12.70
2019,04,19,19,03,12.70
2019,04,19,19,04,12.70
2019,04,19,19,05,12.70
2019,04,19,19,06,12.70
2019,04,19,19,07,12.70
2019,04,19,19,08,12.70
2019,04,19,19,09,12.70
2019,04,19,19,10,12.70
2019,04,19,19,11,12.70
